Miscellaneous Local Product
Issued by NWS Hastings, NE

Home | Current Version | Previous Version | Text Only | Print | Product List | Glossary Off
Versions: 1 2 3 4 5 6 7 8 9 10 11 12 13 14 15 16 17 18 19 20 21 22 23 24 25 26 27 28 29 30 31 32 33 34 35 36 37 38 39 40 41 42 43 44 45 46 47 48 49 50

542
AXUS43 KGID 160702
MISGRI

GID CWA HOURLY WEATHER ROUNDUP
NATIONAL WEATHER SERVICE HASTINGS NE
100 AM CST SAT DEC 16 2017

NOTE: "FAIR" INDICATES FEW OR NO CLOUDS BELOW 12,000 FEET WITH NO
SIGNIFICANT WEATHER AND/OR OBSTRUCTIONS TO VISIBILITY.

...SOUTH CENTRAL NEBRASKA...

CITY           SKY/WX    TMP DP  RH WIND       PRES   REMARKS
GRAND ISLAND   CLOUDY    37  18  46 SW15      29.72F WCI  28
KEARNEY        CLOUDY    37  13  37 W7        29.74S WCI  32
HASTINGS       CLOUDY    36  16  44 SW7       29.74F WCI  30
ORD            CLOUDY    26  19  74 W3        29.69F
YORK           CLOUDY    34  23  64 SW10      29.74S WCI  26
AURORA         CLOUDY    34  20  57 SW12      29.73S WCI  26
LEXINGTON      CLOUDY    26  15  63 NW5       29.74F WCI  20
HOLDREGE       CLOUDY    40  15  37 W13       29.74F WCI  32
HEBRON         CLOUDY    38  21  50 SW9       29.77F WCI  32

...NEBRASKA PANHANDLE...

CITY           SKY/WX    TMP DP  RH WIND       PRES   REMARKS
CHADRON        PTCLDY    30  17  58 W9        29.73F WCI  22
ALLIANCE       CLOUDY    33  13  43 N5        29.74S WCI  29
SCOTTSBLUFF    CLOUDY    37   8  30 N7        29.75F WCI  32
SIDNEY         CLOUDY    31   8  38 NW12      29.77F WCI  22

...WESTERN AND NORTH CENTRAL NEBRASKA...

CITY           SKY/WX    TMP DP  RH WIND       PRES   REMARKS
VALENTINE      PTCLDY    35  24  64 NW3       29.69F
AINSWORTH      PTCLDY    37  26  63 W7        29.69S WCI  31
ONEILL         PTCLDY    40  26  58 NW9       29.67F WCI  34
BROKEN BOW     CLOUDY    36  20  52 CALM      29.71F
IMPERIAL       CLOUDY    27  10  49 W7        29.76F WCI  19
NORTH PLATTE   CLOUDY    28  21  75 W5        29.74F WCI  23
MCCOOK         CLOUDY    32  12  43 W10       29.75F WCI  24

...EASTERN NEBRASKA...

CITY           SKY/WX    TMP DP  RH WIND       PRES   REMARKS
NORFOLK        CLOUDY    36  22  56 W3        29.67F
SO SIOUX CITY  CLOUDY    27  21  78 E7        29.67S WCI  19
TEKAMAH        CLEAR     37  21  52 SW10      29.69F WCI  30
COLUMBUS       CLOUDY    34  22  61 W6        29.71F WCI  29
ALBION         CLOUDY    37  24  57 NW5       29.69F WCI  34
OMAHA EPPLEY   CLEAR     33  22  63 SE10      29.74R WCI  25
OFFUTT AFB     CLEAR     29  20  71 SE6       29.73S WCI  22
MILLARD        CLEAR     46  23  41 SW9       29.73S
LINCOLN        CLEAR     39  21  48 SW9       29.76S WCI  33
NEBRASKA CITY  CLEAR     42  25  50 SW14      29.76S
BEATRICE       CLEAR     40  24  52 SW10      29.77F WCI  34
FALLS CITY     CLEAR     40  24  53 SW16      29.80F WCI  31

...NORTHERN KANSAS...

CITY           SKY/WX    TMP DP  RH WIND       PRES   REMARKS
GOODLAND       CLOUDY    41  12  30 SW12      29.77F
HILL CITY      CLOUDY    36  13  38 W6        29.78F WCI  31
NORTON         SUNNY     30  10  43 SW9       29.75F WCI  22
PHILLIPSBURG   CLEAR     39  12  33 SW5       29.78S
HAYS           CLOUDY    36  18  48 CALM      29.82F
RUSSELL        CLOUDY    36  20  52 S15       29.80F WCI  27
CONCORDIA      CLOUDY    38  23  55 S16       29.79F WCI  29
SALINA         CLEAR     38  24  57 S8        29.85F WCI  32
TOPEKA         CLEAR    N/A N/A N/A S9        29.88F



USA.gov is the U.S. government's official web portal to all federal, state and local government web resources and services.